Time,TemperatureF,DewpointF,PressureIn,WindDirection,WindDirectionDegrees,WindSpeedMPH,WindSpeedGustMPH,Humidity,HourlyPrecipIn,Conditions,Clouds,dailyrainin,SolarRadiationWatts/m^2,SoftwareType,DateUTC
2013-07-26 00:32:00,71.0,48.0,-100.00,ESE,114,0.0,8.0,44,0.00,,,0.00,0.000000,,2013-07-26 07:32:00,
2013-07-26 00:43:00,71.0,48.0,-100.00,ESE,114,0.0,8.0,44,0.00,,,0.00,0.000000,,2013-07-26 07:43:00,
2013-07-26 00:52:00,71.0,48.0,-100.00,ESE,114,0.0,8.0,44,0.00,,,0.00,0.000000,,2013-07-26 07:52:00,
2013-07-26 01:32:00,72.0,49.0,-100.00,SE,128,1.0,8.0,44,0.00,,,0.00,0.000000,,2013-07-26 08:32:00,
2013-07-26 01:44:00,72.0,49.0,-100.00,SE,128,1.0,8.0,44,0.00,,,0.00,0.000000,,2013-07-26 08:44:00,
2013-07-26 01:52:00,72.0,49.0,-100.00,SE,128,1.0,8.0,44,0.00,,,0.00,0.000000,,2013-07-26 08:52:00,
2013-07-26 02:22:00,70.0,47.0,-100.00,SE,132,1.0,5.0,44,0.00,,,0.00,0.000000,,2013-07-26 09:22:00,
2013-07-26 02:32:00,70.0,47.0,-100.00,SE,132,1.0,5.0,44,0.00,,,0.00,0.000000,,2013-07-26 09:32:00,
2013-07-26 02:43:00,70.0,47.0,-100.00,SE,132,1.0,5.0,44,0.00,,,0.00,0.000000,,2013-07-26 09:43:00,
2013-07-26 02:52:00,70.0,47.0,-100.00,SE,132,1.0,5.0,44,0.00,,,0.00,0.000000,,2013-07-26 09:52:00,
2013-07-26 03:22:00,72.0,49.0,-100.00,SE,131,2.0,4.0,45,0.00,,,0.00,0.000000,,2013-07-26 10:22:00,
2013-07-26 03:33:00,72.0,49.0,-100.00,SE,131,2.0,4.0,45,0.00,,,0.00,0.000000,,2013-07-26 10:33:00,
2013-07-26 03:42:00,72.0,49.0,-100.00,SE,131,2.0,4.0,45,0.00,,,0.00,0.000000,,2013-07-26 10:42:00,
2013-07-26 03:52:00,72.0,49.0,-100.00,SE,131,2.0,4.0,45,0.00,,,0.00,0.000000,,2013-07-26 10:52:00,
2013-07-26 04:32:00,72.0,49.0,-100.00,East,94,0.0,6.0,44,0.00,,,0.00,0.000000,,2013-07-26 11:32:00,
2013-07-26 04:43:00,72.0,49.0,-100.00,East,94,0.0,6.0,44,0.00,,,0.00,0.000000,,2013-07-26 11:43:00,
2013-07-26 04:52:00,72.0,49.0,-100.00,East,94,0.0,6.0,44,0.00,,,0.00,0.000000,,2013-07-26 11:52:00,
2013-07-26 05:22:00,71.0,49.0,-100.00,East,101,0.0,6.0,45,0.00,,,0.00,0.000000,,2013-07-26 12:22:00,
2013-07-26 05:33:00,71.0,49.0,-100.00,East,101,0.0,6.0,45,0.00,,,0.00,0.000000,,2013-07-26 12:33:00,
2013-07-26 05:43:00,71.0,49.0,-100.00,East,101,0.0,6.0,45,0.00,,,0.00,0.000000,,2013-07-26 12:43:00,
2013-07-26 05:53:00,71.0,49.0,-100.00,East,101,0.0,6.0,45,0.00,,,0.00,0.000000,,2013-07-26 12:53:00,
2013-07-26 06:22:00,70.0,48.0,-100.00,SE,126,0.0,5.0,45,0.00,,,0.00,0.000000,,2013-07-26 13:22:00,
2013-07-26 06:32:00,70.0,48.0,-100.00,SE,126,0.0,5.0,45,0.00,,,0.00,0.000000,,2013-07-26 13:32:00,
2013-07-26 06:43:00,70.0,48.0,-100.00,SE,126,0.0,5.0,45,0.00,,,0.00,0.000000,,2013-07-26 13:43:00,
2013-07-26 06:53:00,70.0,48.0,-100.00,SE,126,0.0,5.0,45,0.00,,,0.00,0.000000,,2013-07-26 13:53:00,
2013-07-26 07:43:00,71.0,49.0,-100.00,ESE,114,0.0,4.0,45,0.00,,,0.00,7.000000,,2013-07-26 14:43:00,
2013-07-26 07:53:00,71.0,49.0,-100.00,ESE,114,0.0,4.0,45,0.00,,,0.00,7.000000,,2013-07-26 14:53:00,
2013-07-26 08:22:00,74.0,52.0,-100.00,WNW,295,0.0,5.0,47,0.00,,,0.00,50.000000,,2013-07-26 15:22:00,
2013-07-26 08:32:00,74.0,52.0,-100.00,WNW,295,0.0,5.0,47,0.00,,,0.00,50.000000,,2013-07-26 15:32:00,
2013-07-26 08:43:00,74.0,52.0,-100.00,WNW,295,0.0,5.0,47,0.00,,,0.00,50.000000,,2013-07-26 15:43:00,
2013-07-26 08:53:00,74.0,52.0,-100.00,WNW,295,0.0,5.0,47,0.00,,,0.00,50.000000,,2013-07-26 15:53:00,
2013-07-26 09:43:00,80.0,57.0,-100.00,South,175,0.0,5.0,45,0.00,,,0.00,220.000000,,2013-07-26 16:43:00,
2013-07-26 11:22:00,80.0,55.0,-100.00,North,7,0.0,7.0,42,-99.99,,,-99.99,416.000000,,2013-07-26 18:22:00,
2013-07-26 11:33:00,80.0,55.0,-100.00,North,7,0.0,7.0,42,-99.99,,,-99.99,416.000000,,2013-07-26 18:33:00,
2013-07-26 11:43:00,80.0,55.0,-100.00,North,7,0.0,7.0,42,-99.99,,,-99.99,416.000000,,2013-07-26 18:43:00,
2013-07-26 11:52:00,80.0,55.0,-100.00,North,7,0.0,7.0,42,-99.99,,,-99.99,416.000000,,2013-07-26 18:52:00,
2013-07-26 19:22:00,78.0,56.0,-100.00,ESE,117,3.0,10.0,46,-99.99,,,0.00,281.000000,,2013-07-27 02:22:00,
2013-07-26 19:32:00,78.0,56.0,-100.00,ESE,117,3.0,10.0,46,-99.99,,,0.00,281.000000,,2013-07-27 02:32:00,
2013-07-26 19:43:00,78.0,56.0,-100.00,ESE,117,3.0,10.0,46,-99.99,,,0.00,281.000000,,2013-07-27 02:43:00,
2013-07-26 19:52:00,78.0,56.0,-100.00,ESE,117,3.0,10.0,46,-99.99,,,0.00,281.000000,,2013-07-27 02:52:00,
2013-07-26 20:44:00,77.0,60.0,-100.00,SSE,161,0.0,11.0,55,0.00,,,0.00,72.000000,,2013-07-27 03:44:00,
2013-07-26 20:52:00,77.0,60.0,-100.00,SSE,161,0.0,11.0,55,0.00,,,0.00,72.000000,,2013-07-27 03:52:00,
2013-07-26 21:22:00,72.0,56.0,-100.00,ESE,120,0.0,7.0,58,0.00,,,0.00,4.000000,,2013-07-27 04:22:00,
2013-07-26 21:32:00,72.0,56.0,-100.00,ESE,120,0.0,7.0,58,0.00,,,0.00,4.000000,,2013-07-27 04:32:00,
2013-07-26 21:43:00,72.0,56.0,-100.00,ESE,120,0.0,7.0,58,0.00,,,0.00,4.000000,,2013-07-27 04:43:00,
2013-07-26 21:53:00,72.0,56.0,-100.00,ESE,120,0.0,7.0,58,0.00,,,0.00,4.000000,,2013-07-27 04:53:00,
2013-07-26 22:22:00,72.0,53.0,-100.00,SE,128,1.0,4.0,51,0.00,,,0.00,0.000000,,2013-07-27 05:22:00,
2013-07-26 22:32:00,72.0,53.0,-100.00,SE,128,1.0,4.0,51,0.00,,,0.00,0.000000,,2013-07-27 05:32:00,
2013-07-26 22:43:00,72.0,53.0,-100.00,SE,128,1.0,4.0,51,0.00,,,0.00,0.000000,,2013-07-27 05:43:00,
2013-07-26 22:52:00,72.0,53.0,-100.00,SE,128,1.0,4.0,51,0.00,,,0.00,0.000000,,2013-07-27 05:52:00,
2013-07-26 23:43:00,71.0,52.0,-100.00,SE,143,2.0,7.0,51,0.00,,,0.00,0.000000,,2013-07-27 06:43:00,
2013-07-26 23:52:00,71.0,52.0,-100.00,SE,143,2.0,7.0,51,0.00,,,0.00,0.000000,,2013-07-27 06:52:00,